,,PressureMeas_1m,,PRMeasQMR101_1,,RHStat155_1m_1,,SRMeasQMS101R_1m,,TAStat155_1m_1,,GenWind_1,,GenWind_1,
2018-07-06, 00:00:07,VALID,917.735,VALID,0.0,VALID,94.834,VALID,-0.032,VALID,19.495,VALID,47.0,VALID,0.646,
2018-07-06, 00:01:07,VALID,917.737,VALID,0.0,VALID,94.819,VALID,-0.021,VALID,19.474,VALID,44.0,VALID,0.722,
2018-07-06, 00:02:07,VALID,917.732,VALID,0.0,VALID,94.841,VALID,-0.01,VALID,19.42,VALID,47.0,VALID,0.927,
2018-07-06, 00:03:07,VALID,917.731,VALID,0.0,VALID,95.082,VALID,-0.037,VALID,19.4,VALID,44.0,VALID,1.142,
2018-07-06, 00:04:07,VALID,917.725,VALID,0.0,VALID,95.214,VALID,-0.033,VALID,19.38,VALID,45.0,VALID,1.234,
2018-07-06, 00:05:07,VALID,917.738,VALID,0.0,VALID,95.272,VALID,0.01,VALID,19.344,VALID,44.0,VALID,1.738,
2018-07-06, 00:06:07,VALID,917.736,VALID,0.0,VALID,95.149,VALID,0.007,VALID,19.312,VALID,44.0,VALID,1.156,
2018-07-06, 00:07:07,VALID,917.764,VALID,0.0,VALID,95.352,VALID,0.003,VALID,19.314,VALID,44.0,VALID,1.712,
2018-07-06, 00:08:07,VALID,917.772,VALID,0.0,VALID,95.305,VALID,-0.003,VALID,19.301,VALID,43.0,VALID,1.108,
2018-07-06, 00:09:07,VALID,917.773,VALID,0.0,VALID,95.231,VALID,0.007,VALID,19.275,VALID,43.0,VALID,1.005,
2018-07-06, 00:10:07,VALID,917.787,VALID,0.0,VALID,95.218,VALID,-0.01,VALID,19.251,VALID,43.0,VALID,1.069,
2018-07-06, 00:11:07,VALID,917.78,VALID,0.0,VALID,95.331,VALID,-0.006,VALID,19.242,VALID,43.0,VALID,1.021,
2018-07-06, 00:12:07,VALID,917.75,VALID,0.0,VALID,95.433,VALID,-0.003,VALID,19.23,VALID,43.0,VALID,1.335,
2018-07-06, 00:13:07,VALID,917.736,VALID,0.0,VALID,95.57,VALID,-0.006,VALID,19.219,VALID,43.0,VALID,1.173,
2018-07-06, 00:14:07,VALID,917.727,VALID,0.0,VALID,95.582,VALID,0.012,VALID,19.208,VALID,43.0,VALID,1.592,
2018-07-06, 00:15:07,VALID,917.702,VALID,0.0,VALID,95.73,VALID,-0.013,VALID,19.228,VALID,43.0,VALID,1.697,
2018-07-06, 00:16:07,VALID,917.683,VALID,0.0,VALID,95.698,VALID,-0.002,VALID,19.235,VALID,43.0,VALID,2.198,
2018-07-06, 00:17:07,VALID,917.68,VALID,0.0,VALID,95.807,VALID,-0.01,VALID,19.26,VALID,43.0,VALID,1.683,
2018-07-06, 00:18:07,VALID,917.689,VALID,0.0,VALID,95.645,VALID,-0.009,VALID,19.258,VALID,43.0,VALID,1.832,
2018-07-06, 00:19:07,VALID,917.691,VALID,0.0,VALID,95.653,VALID,0.005,VALID,19.223,VALID,44.0,VALID,1.646,
2018-07-06, 00:20:07,VALID,917.686,VALID,0.0,VALID,95.779,VALID,-0.002,VALID,19.197,VALID,43.0,VALID,1.608,
2018-07-06, 00:21:07,VALID,917.686,VALID,0.0,VALID,95.913,VALID,0.006,VALID,19.19,VALID,45.0,VALID,1.924,
2018-07-06, 00:22:07,VALID,917.688,VALID,0.0,VALID,95.977,VALID,-0.013,VALID,19.191,VALID,45.0,VALID,1.854,
2018-07-06, 00:23:07,VALID,917.666,VALID,0.0,VALID,95.97,VALID,-0.011,VALID,19.19,VALID,44.0,VALID,1.452,
2018-07-06, 00:24:07,VALID,917.653,VALID,0.0,VALID,95.907,VALID,-0.0,VALID,19.166,VALID,44.0,VALID,1.231,
2018-07-06, 00:25:07,VALID,917.635,VALID,0.0,VALID,96.078,VALID,-0.01,VALID,19.15,VALID,45.0,VALID,1.529,
2018-07-06, 00:26:07,VALID,917.618,VALID,0.0,VALID,96.188,VALID,0.006,VALID,19.122,VALID,45.0,VALID,1.426,
2018-07-06, 00:27:07,VALID,917.607,VALID,0.0,VALID,96.372,VALID,-0.011,VALID,19.106,VALID,45.0,VALID,1.991,
2018-07-06, 00:28:07,VALID,917.608,VALID,0.0,VALID,96.598,VALID,-0.022,VALID,19.124,VALID,45.0,VALID,1.712,
2018-07-06, 00:29:07,VALID,917.601,VALID,0.0,VALID,96.658,VALID,-0.02,VALID,19.139,VALID,48.0,VALID,1.491,
2018-07-06, 00:30:07,VALID,917.613,VALID,0.0,VALID,96.674,VALID,-0.006,VALID,19.164,VALID,45.0,VALID,1.322,
2018-07-06, 00:31:07,VALID,917.61,VALID,0.0,VALID,96.682,VALID,-0.002,VALID,19.155,VALID,46.0,VALID,1.288,
2018-07-06, 00:32:07,VALID,917.594,VALID,0.0,VALID,96.645,VALID,0.003,VALID,19.135,VALID,48.0,VALID,1.32,
2018-07-06, 00:33:07,VALID,917.594,VALID,0.0,VALID,96.669,VALID,0.0,VALID,19.141,VALID,46.0,VALID,1.257,
2018-07-06, 00:34:07,VALID,917.575,VALID,0.0,VALID,96.81,VALID,-0.011,VALID,19.151,VALID,45.0,VALID,1.62,
2018-07-06, 00:35:07,VALID,917.562,VALID,0.0,VALID,96.781,VALID,0.004,VALID,19.129,VALID,45.0,VALID,1.021,
2018-07-06, 00:36:07,VALID,917.564,VALID,0.0,VALID,96.745,VALID,0.009,VALID,19.101,VALID,46.0,VALID,0.847,
2018-07-06, 00:37:07,VALID,917.556,VALID,0.0,VALID,96.737,VALID,0.02,VALID,19.08,VALID,46.0,VALID,1.171,
2018-07-06, 00:38:07,VALID,917.585,VALID,0.0,VALID,96.793,VALID,-0.016,VALID,19.081,VALID,46.0,VALID,1.289,
2018-07-06, 00:39:07,VALID,917.586,VALID,0.0,VALID,96.95,VALID,-0.002,VALID,19.092,VALID,47.0,VALID,0.848,
2018-07-06, 00:40:07,VALID,917.595,VALID,0.0,VALID,96.959,VALID,-0.025,VALID,19.1,VALID,47.0,VALID,0.644,
2018-07-06, 00:41:07,VALID,917.601,VALID,0.0,VALID,96.787,VALID,0.002,VALID,19.075,VALID,49.0,VALID,0.445,
2018-07-06, 00:42:07,VALID,917.608,VALID,0.0,VALID,96.803,VALID,-0.007,VALID,19.081,VALID,38.0,VALID,0.545,
2018-07-06, 00:43:07,VALID,917.606,VALID,0.0,VALID,96.691,VALID,0.008,VALID,19.068,VALID,47.0,VALID,0.193,
2018-07-06, 00:44:07,VALID,917.599,VALID,0.0,VALID,96.616,VALID,0.001,VALID,19.06,VALID,47.0,VALID,0.428,
2018-07-06, 00:45:07,VALID,917.598,VALID,0.0,VALID,96.646,VALID,-0.013,VALID,19.064,VALID,47.0,VALID,0.508,
2018-07-06, 00:46:07,VALID,917.615,VALID,0.0,VALID,96.706,VALID,0.002,VALID,19.08,VALID,50.0,VALID,0.274,
2018-07-06, 00:47:07,VALID,917.594,VALID,0.0,VALID,96.673,VALID,-0.007,VALID,19.092,INVALID,360.0,VALID,0.107,
2018-07-06, 00:48:07,VALID,917.605,VALID,0.0,VALID,96.478,VALID,-0.01,VALID,19.064,VALID,45.0,VALID,0.721,
2018-07-06, 00:49:07,VALID,917.598,VALID,0.0,VALID,96.568,VALID,-0.007,VALID,19.074,VALID,45.0,VALID,0.644,
2018-07-06, 00:50:07,VALID,917.591,VALID,0.0,VALID,96.284,VALID,0.006,VALID,19.06,VALID,43.0,VALID,0.207,
2018-07-06, 00:51:07,VALID,917.585,VALID,0.0,VALID,95.721,VALID,0.013,VALID,18.985,VALID,43.0,VALID,0.103,
2018-07-06, 00:52:07,VALID,917.571,VALID,0.0,VALID,95.587,VALID,0.018,VALID,18.94,INVALID,360.0,VALID,0.0,
2018-07-06, 00:53:07,VALID,917.567,VALID,0.0,VALID,95.606,VALID,0.01,VALID,18.872,INVALID,360.0,VALID,0.0,
2018-07-06, 00:54:07,VALID,917.57,VALID,0.0,VALID,95.724,VALID,0.016,VALID,18.781,VALID,45.0,VALID,0.12,
2018-07-06, 00:55:07,VALID,917.552,VALID,0.0,VALID,95.932,VALID,0.008,VALID,18.689,VALID,45.0,VALID,0.214,
2018-07-06, 00:56:07,VALID,917.544,VALID,0.0,VALID,96.481,VALID,0.02,VALID,18.664,VALID,46.0,VALID,0.147,
2018-07-06, 00:57:07,VALID,917.552,VALID,0.0,VALID,96.934,VALID,0.012,VALID,18.664,INVALID,360.0,VALID,0.001,
2018-07-06, 00:58:07,VALID,917.537,VALID,0.0,VALID,97.08,VALID,0.008,VALID,18.653,INVALID,360.0,VALID,0.0,
2018-07-06, 00:59:07,VALID,917.539,VALID,0.0,VALID,97.208,VALID,0.008,VALID,18.648,INVALID,360.0,VALID,0.0,
2018-07-06, 01:00:07,VALID,917.544,VALID,0.0,VALID,97.218,VALID,0.022,VALID,18.652,INVALID,360.0,VALID,0.0,
2018-07-06, 01:01:07,VALID,917.537,VALID,0.0,VALID,97.26,VALID,0.01,VALID,18.652,INVALID,360.0,VALID,0.0,
2018-07-06, 01:02:07,VALID,917.541,VALID,0.0,VALID,97.149,VALID,0.011,VALID,18.624,INVALID,360.0,VALID,0.0,
2018-07-06, 01:03:07,VALID,917.561,VALID,0.0,VALID,96.645,VALID,0.008,VALID,18.525,INVALID,360.0,VALID,0.0,
2018-07-06, 01:04:07,VALID,917.551,VALID,0.0,VALID,96.383,VALID,-0.003,VALID,18.461,INVALID,360.0,VALID,0.0,
2018-07-06, 01:05:07,VALID,917.571,VALID,0.0,VALID,96.45,VALID,0.015,VALID,18.438,INVALID,360.0,VALID,0.0,
2018-07-06, 01:06:07,VALID,917.591,VALID,0.0,VALID,96.739,VALID,0.008,VALID,18.432,INVALID,360.0,VALID,0.0,
2018-07-06, 01:07:07,VALID,917.6,VALID,0.0,VALID,97.013,VALID,-0.0,VALID,18.427,INVALID,360.0,VALID,0.0,
2018-07-06, 01:08:07,VALID,917.609,VALID,0.0,VALID,97.183,VALID,-0.01,VALID,18.443,INVALID,360.0,VALID,0.0,
2018-07-06, 01:09:07,VALID,917.614,VALID,0.0,VALID,97.146,VALID,-0.001,VALID,18.42,INVALID,360.0,VALID,0.0,
2018-07-06, 01:10:07,VALID,917.621,VALID,0.0,VALID,97.117,VALID,-0.002,VALID,18.395,INVALID,360.0,VALID,0.0,
2018-07-06, 01:11:07,VALID,917.614,VALID,0.0,VALID,96.435,VALID,0.028,VALID,18.261,INVALID,360.0,VALID,0.004,
2018-07-06, 01:12:07,VALID,917.606,VALID,0.0,VALID,96.564,VALID,0.016,VALID,18.241,VALID,46.0,VALID,0.362,
2018-07-06, 01:13:07,VALID,917.608,VALID,0.0,VALID,97.357,VALID,0.008,VALID,18.277,VALID,46.0,VALID,0.637,
2018-07-06, 01:14:07,VALID,917.609,VALID,0.0,VALID,97.617,VALID,0.013,VALID,18.24,VALID,46.0,VALID,0.704,
2018-07-06, 01:15:07,VALID,917.621,VALID,0.0,VALID,98.032,VALID,-0.002,VALID,18.266,VALID,46.0,VALID,0.482,
2018-07-06, 01:16:07,VALID,917.625,VALID,0.0,VALID,98.061,VALID,0.005,VALID,18.209,VALID,46.0,VALID,0.434,
2018-07-06, 01:17:07,VALID,917.629,VALID,0.0,VALID,98.197,VALID,0.023,VALID,18.188,VALID,45.0,VALID,0.408,
2018-07-06, 01:18:07,VALID,917.621,VALID,0.0,VALID,98.26,VALID,-0.002,VALID,18.153,VALID,45.0,VALID,0.168,
2018-07-06, 01:19:07,VALID,917.63,VALID,0.0,VALID,98.341,VALID,0.009,VALID,18.13,VALID,45.0,VALID,0.12,
2018-07-06, 01:20:07,VALID,917.624,VALID,0.0,VALID,98.536,VALID,0.0,VALID,18.204,VALID,44.0,VALID,0.306,
2018-07-06, 01:21:07,VALID,917.625,VALID,0.0,VALID,98.489,VALID,0.002,VALID,18.161,VALID,43.0,VALID,0.318,
2018-07-06, 01:22:07,VALID,917.623,VALID,0.0,VALID,98.562,VALID,-0.004,VALID,18.158,VALID,43.0,VALID,0.436,
2018-07-06, 01:23:07,VALID,917.626,VALID,0.0,VALID,98.629,VALID,0.006,VALID,18.189,VALID,43.0,VALID,0.599,
2018-07-06, 01:24:07,VALID,917.628,VALID,0.0,VALID,98.751,VALID,-0.013,VALID,18.266,VALID,41.0,VALID,0.76,
2018-07-06, 01:25:07,VALID,917.631,VALID,0.0,VALID,98.778,VALID,-0.023,VALID,18.319,VALID,41.0,VALID,0.539,
2018-07-06, 01:26:07,VALID,917.622,VALID,0.0,VALID,98.755,VALID,-0.016,VALID,18.303,VALID,41.0,VALID,0.184,
2018-07-06, 01:27:07,VALID,917.622,VALID,0.0,VALID,98.744,VALID,-0.004,VALID,18.288,VALID,41.0,VALID,0.184,
2018-07-06, 01:28:07,VALID,917.616,VALID,0.0,VALID,98.782,VALID,-0.008,VALID,18.282,VALID,40.0,VALID,0.177,
2018-07-06, 01:29:07,VALID,917.605,VALID,0.0,VALID,98.847,VALID,-0.004,VALID,18.324,VALID,40.0,VALID,0.407,
2018-07-06, 01:30:07,VALID,917.593,VALID,0.0,VALID,98.879,VALID,0.002,VALID,18.372,VALID,40.0,VALID,0.38,
2018-07-06, 01:31:07,VALID,917.572,VALID,0.0,VALID,98.858,VALID,0.005,VALID,18.372,VALID,43.0,VALID,0.427,
2018-07-06, 01:32:07,VALID,917.555,VALID,0.0,VALID,98.882,VALID,0.009,VALID,18.368,VALID,46.0,VALID,0.474,
2018-07-06, 01:33:07,VALID,917.543,VALID,0.0,VALID,98.893,VALID,-0.015,VALID,18.381,VALID,46.0,VALID,0.773,
2018-07-06, 01:34:07,VALID,917.513,VALID,0.0,VALID,98.921,VALID,-0.006,VALID,18.405,VALID,44.0,VALID,0.755,
2018-07-06, 01:35:07,VALID,917.488,VALID,0.0,VALID,98.9,VALID,-0.011,VALID,18.382,VALID,44.0,VALID,0.823,
2018-07-06, 01:36:07,VALID,917.476,VALID,0.0,VALID,98.898,VALID,0.017,VALID,18.382,VALID,44.0,VALID,0.863,
2018-07-06, 01:37:07,VALID,917.453,VALID,0.0,VALID,98.959,VALID,-0.006,VALID,18.411,VALID,44.0,VALID,0.784,
2018-07-06, 01:38:07,VALID,917.428,VALID,0.0,VALID,98.951,VALID,-0.0,VALID,18.427,VALID,45.0,VALID,0.86,
2018-07-06, 01:39:07,VALID,917.402,VALID,0.0,VALID,98.95,VALID,-0.013,VALID,18.428,VALID,46.0,VALID,0.634,
2018-07-06, 01:40:07,VALID,917.372,VALID,0.0,VALID,98.974,VALID,-0.009,VALID,18.453,VALID,45.0,VALID,0.9,
2018-07-06, 01:41:07,VALID,917.325,VALID,0.0,VALID,99.021,VALID,-0.007,VALID,18.496,VALID,43.0,VALID,1.185,
2018-07-06, 01:42:07,VALID,917.306,VALID,0.0,VALID,98.989,VALID,-0.013,VALID,18.497,VALID,44.0,VALID,1.297,
2018-07-06, 01:43:07,VALID,917.279,VALID,0.0,VALID,98.975,VALID,-0.015,VALID,18.484,VALID,43.0,VALID,1.284,
2018-07-06, 01:44:07,VALID,917.269,VALID,0.0,VALID,98.994,VALID,-0.014,VALID,18.485,VALID,43.0,VALID,1.179,
2018-07-06, 01:45:07,VALID,917.264,VALID,0.0,VALID,98.995,VALID,-0.01,VALID,18.465,VALID,42.0,VALID,1.096,
2018-07-06, 01:46:07,VALID,917.249,VALID,0.0,VALID,99.008,VALID,-0.022,VALID,18.468,VALID,43.0,VALID,1.105,
2018-07-06, 01:47:07,VALID,917.235,VALID,0.0,VALID,98.996,VALID,-0.039,VALID,18.444,VALID,44.0,VALID,1.013,
2018-07-06, 01:48:07,VALID,917.206,VALID,0.0,VALID,99.029,VALID,-0.021,VALID,18.475,VALID,44.0,VALID,1.148,
2018-07-06, 01:49:07,VALID,917.193,VALID,0.0,VALID,99.023,VALID,-0.016,VALID,18.486,VALID,44.0,VALID,0.941,
2018-07-06, 01:50:07,VALID,917.176,VALID,0.0,VALID,99.038,VALID,0.003,VALID,18.478,VALID,43.0,VALID,0.79,
2018-07-06, 01:51:07,VALID,917.158,VALID,0.0,VALID,99.056,VALID,-0.011,VALID,18.491,VALID,43.0,VALID,0.952,
2018-07-06, 01:52:07,VALID,917.142,VALID,0.0,VALID,99.06,VALID,0.012,VALID,18.536,VALID,43.0,VALID,1.072,
2018-07-06, 01:53:07,VALID,917.129,VALID,0.0,VALID,99.058,VALID,0.006,VALID,18.535,VALID,43.0,VALID,0.809,
2018-07-06, 01:54:07,VALID,917.12,VALID,0.0,VALID,99.037,VALID,0.012,VALID,18.502,VALID,43.0,VALID,0.923,
2018-07-06, 01:55:07,VALID,917.108,VALID,0.0,VALID,99.006,VALID,0.013,VALID,18.451,VALID,43.0,VALID,1.014,
2018-07-06, 01:56:07,VALID,917.115,VALID,0.0,VALID,99.033,VALID,0.0,VALID,18.447,VALID,43.0,VALID,0.901,
2018-07-06, 01:57:07,VALID,917.102,VALID,0.0,VALID,99.027,VALID,-0.001,VALID,18.431,VALID,43.0,VALID,0.962,
2018-07-06, 01:58:07,VALID,917.094,VALID,0.0,VALID,99.022,VALID,-0.011,VALID,18.415,VALID,44.0,VALID,0.987,
2018-07-06, 01:59:07,VALID,917.083,VALID,0.0,VALID,99.035,VALID,0.015,VALID,18.406,VALID,44.0,VALID,1.095,
2018-07-06, 02:00:07,VALID,917.087,VALID,0.0,VALID,99.059,VALID,0.006,VALID,18.412,VALID,44.0,VALID,1.023,
2018-07-06, 02:01:07,VALID,917.092,VALID,0.0,VALID,99.077,VALID,0.021,VALID,18.421,VALID,45.0,VALID,0.792,
2018-07-06, 02:02:07,VALID,917.091,VALID,0.0,VALID,99.044,VALID,0.017,VALID,18.403,VALID,45.0,VALID,0.681,
2018-07-06, 02:03:07,VALID,917.083,VALID,0.0,VALID,99.071,VALID,0.016,VALID,18.413,VALID,43.0,VALID,0.642,
2018-07-06, 02:04:07,VALID,917.097,VALID,0.0,VALID,99.088,VALID,0.012,VALID,18.429,VALID,43.0,VALID,0.727,
2018-07-06, 02:05:07,VALID,917.102,VALID,0.0,VALID,99.081,VALID,-0.024,VALID,18.418,VALID,43.0,VALID,0.405,
2018-07-06, 02:06:07,VALID,917.109,VALID,0.0,VALID,99.062,VALID,-0.03,VALID,18.409,VALID,43.0,VALID,0.404,
2018-07-06, 02:07:07,VALID,917.113,VALID,0.0,VALID,99.078,VALID,-0.024,VALID,18.42,VALID,44.0,VALID,0.003,
2018-07-06, 02:08:07,VALID,917.123,VALID,0.0,VALID,99.102,VALID,-0.018,VALID,18.455,INVALID,360.0,VALID,0.019,
2018-07-06, 02:09:07,VALID,917.134,VALID,0.0,VALID,99.105,VALID,-0.009,VALID,18.466,INVALID,360.0,VALID,0.008,
2018-07-06, 02:10:07,VALID,917.122,VALID,0.0,VALID,99.077,VALID,-0.037,VALID,18.447,INVALID,360.0,VALID,0.001,
2018-07-06, 02:11:07,VALID,917.114,VALID,0.0,VALID,99.084,VALID,-0.032,VALID,18.456,INVALID,360.0,VALID,0.0,
2018-07-06, 02:12:06,VALID,917.111,VALID,0.0,VALID,99.115,VALID,-0.019,VALID,18.491,INVALID,360.0,VALID,0.0,
2018-07-06, 02:13:06,VALID,917.103,VALID,0.0,VALID,99.098,VALID,-0.032,VALID,18.487,INVALID,360.0,VALID,0.0,
2018-07-06, 02:14:06,VALID,917.094,VALID,0.0,VALID,99.088,VALID,-0.047,VALID,18.472,INVALID,360.0,VALID,0.0,
2018-07-06, 02:15:06,VALID,917.074,VALID,0.0,VALID,99.089,VALID,-0.047,VALID,18.454,INVALID,360.0,VALID,0.0,
2018-07-06, 02:16:06,VALID,917.07,VALID,0.0,VALID,99.105,VALID,-0.029,VALID,18.453,INVALID,360.0,VALID,0.0,
2018-07-06, 02:17:06,VALID,917.066,VALID,0.0,VALID,99.076,VALID,-0.024,VALID,18.433,INVALID,360.0,VALID,0.0,
2018-07-06, 02:18:06,VALID,917.067,VALID,0.0,VALID,99.009,VALID,-0.035,VALID,18.339,INVALID,360.0,VALID,0.0,
2018-07-06, 02:19:06,VALID,917.072,VALID,0.0,VALID,98.985,VALID,-0.019,VALID,18.251,INVALID,360.0,VALID,0.0,
2018-07-06, 02:20:06,VALID,917.081,VALID,0.0,VALID,98.995,VALID,-0.011,VALID,18.199,INVALID,360.0,VALID,0.0,
2018-07-06, 02:21:06,VALID,917.085,VALID,0.0,VALID,99.007,VALID,-0.013,VALID,18.172,INVALID,360.0,VALID,0.0,
2018-07-06, 02:22:06,VALID,917.087,VALID,0.0,VALID,99.026,VALID,0.003,VALID,18.173,INVALID,360.0,VALID,0.0,
2018-07-06, 02:23:06,VALID,917.077,VALID,0.0,VALID,99.067,VALID,-0.002,VALID,18.193,INVALID,360.0,VALID,0.0,
2018-07-06, 02:24:06,VALID,917.077,VALID,0.0,VALID,99.092,VALID,0.003,VALID,18.216,INVALID,360.0,VALID,0.0,
2018-07-06, 02:25:06,VALID,917.072,VALID,0.0,VALID,99.098,VALID,-0.012,VALID,18.23,INVALID,360.0,VALID,0.0,
2018-07-06, 02:26:06,VALID,917.068,VALID,0.0,VALID,99.08,VALID,-0.018,VALID,18.229,INVALID,360.0,VALID,0.0,
2018-07-06, 02:27:06,VALID,917.064,VALID,0.0,VALID,99.085,VALID,-0.008,VALID,18.231,INVALID,360.0,VALID,0.0,
2018-07-06, 02:28:06,VALID,917.071,VALID,0.0,VALID,99.101,VALID,-0.022,VALID,18.266,INVALID,360.0,VALID,0.0,
2018-07-06, 02:29:06,VALID,917.082,VALID,0.0,VALID,99.107,VALID,-0.012,VALID,18.26,INVALID,360.0,VALID,0.0,
2018-07-06, 02:30:06,VALID,917.071,VALID,0.0,VALID,99.052,VALID,-0.005,VALID,18.199,INVALID,360.0,VALID,0.0,
2018-07-06, 02:31:06,VALID,917.089,VALID,0.0,VALID,99.011,VALID,-0.01,VALID,18.14,INVALID,360.0,VALID,0.0,
2018-07-06, 02:32:06,VALID,917.086,VALID,0.0,VALID,98.965,VALID,-0.02,VALID,18.063,INVALID,360.0,VALID,0.0,
2018-07-06, 02:33:06,VALID,917.097,VALID,0.0,VALID,98.963,VALID,-0.016,VALID,18.012,INVALID,360.0,VALID,0.0,
2018-07-06, 02:34:06,VALID,917.103,VALID,0.0,VALID,99.004,VALID,-0.014,VALID,17.977,INVALID,360.0,VALID,0.0,
2018-07-06, 02:35:06,VALID,917.113,VALID,0.0,VALID,99.004,VALID,0.006,VALID,17.925,INVALID,360.0,VALID,0.0,
2018-07-06, 02:36:06,VALID,917.099,VALID,0.0,VALID,98.98,VALID,0.021,VALID,17.873,INVALID,360.0,VALID,0.0,
2018-07-06, 02:37:06,VALID,917.086,VALID,0.0,VALID,99.001,VALID,0.018,VALID,17.859,INVALID,360.0,VALID,0.0,
2018-07-06, 02:38:06,VALID,917.06,VALID,0.0,VALID,99.018,VALID,0.007,VALID,17.867,INVALID,360.0,VALID,0.0,
2018-07-06, 02:39:06,VALID,917.047,VALID,0.0,VALID,99.056,VALID,0.01,VALID,17.889,INVALID,360.0,VALID,0.0,
2018-07-06, 02:40:06,VALID,917.018,VALID,0.0,VALID,99.078,VALID,0.006,VALID,17.919,INVALID,360.0,VALID,0.0,
2018-07-06, 02:41:06,VALID,917.003,VALID,0.0,VALID,99.064,VALID,0.001,VALID,17.925,INVALID,360.0,VALID,0.0,
2018-07-06, 02:42:06,VALID,916.983,VALID,0.0,VALID,99.043,VALID,0.002,VALID,17.905,INVALID,360.0,VALID,0.0,
2018-07-06, 02:43:06,VALID,916.97,VALID,0.0,VALID,98.997,VALID,-0.001,VALID,17.839,INVALID,360.0,VALID,0.0,
2018-07-06, 02:44:06,VALID,916.973,VALID,0.0,VALID,99.038,VALID,0.009,VALID,17.84,VALID,27.0,VALID,0.269,
2018-07-06, 02:45:06,VALID,916.974,VALID,0.0,VALID,99.131,VALID,0.011,VALID,17.93,VALID,29.0,VALID,0.306,
2018-07-06, 02:46:06,VALID,916.979,VALID,0.0,VALID,99.142,VALID,0.032,VALID,17.998,VALID,15.0,VALID,0.18,
2018-07-06, 02:47:06,VALID,916.984,VALID,0.0,VALID,99.165,VALID,0.01,VALID,18.106,INVALID,360.0,VALID,0.101,
2018-07-06, 02:48:06,VALID,916.988,VALID,0.0,VALID,99.197,VALID,0.014,VALID,18.187,INVALID,360.0,VALID,0.03,
2018-07-06, 02:49:06,VALID,916.975,VALID,0.0,VALID,99.143,VALID,0.007,VALID,18.19,INVALID,360.0,VALID,0.0,
2018-07-06, 02:50:06,VALID,916.971,VALID,0.0,VALID,99.122,VALID,0.007,VALID,18.171,INVALID,360.0,VALID,0.0,
2018-07-06, 02:51:06,VALID,916.963,VALID,0.0,VALID,99.111,VALID,0.016,VALID,18.152,INVALID,360.0,VALID,0.0,
2018-07-06, 02:52:06,VALID,916.971,VALID,0.0,VALID,99.11,VALID,0.007,VALID,18.155,INVALID,360.0,VALID,0.0,
2018-07-06, 02:53:06,VALID,916.945,VALID,0.0,VALID,99.106,VALID,0.009,VALID,18.147,INVALID,360.0,VALID,0.0,
2018-07-06, 02:54:06,VALID,916.93,VALID,0.0,VALID,99.087,VALID,0.013,VALID,18.083,INVALID,360.0,VALID,0.056,
2018-07-06, 02:55:06,VALID,916.915,VALID,0.0,VALID,99.05,VALID,0.005,VALID,18.023,VALID,17.0,VALID,0.211,
2018-07-06, 02:56:06,VALID,916.923,VALID,0.0,VALID,99.03,VALID,0.022,VALID,17.966,VALID,41.0,VALID,0.243,
2018-07-06, 02:57:06,VALID,916.924,VALID,0.0,VALID,99.025,VALID,0.022,VALID,17.907,VALID,47.0,VALID,0.164,
2018-07-06, 02:58:06,VALID,916.91,VALID,0.0,VALID,99.007,VALID,0.003,VALID,17.853,INVALID,360.0,VALID,0.142,
2018-07-06, 02:59:06,VALID,916.892,VALID,0.0,VALID,99.042,VALID,0.002,VALID,17.87,VALID,55.0,VALID,0.106,
2018-07-06, 03:00:06,VALID,916.875,VALID,0.0,VALID,99.078,VALID,0.004,VALID,17.913,VALID,50.0,VALID,0.189,
2018-07-06, 03:01:06,VALID,916.847,VALID,0.0,VALID,99.105,VALID,0.012,VALID,17.967,VALID,46.0,VALID,0.493,
2018-07-06, 03:02:06,VALID,916.819,VALID,0.0,VALID,99.133,VALID,0.012,VALID,18.057,VALID,46.0,VALID,0.508,
2018-07-06, 03:03:06,VALID,916.798,VALID,0.0,VALID,99.115,VALID,0.021,VALID,18.046,VALID,43.0,VALID,0.53,
2018-07-06, 03:04:06,VALID,916.792,VALID,0.0,VALID,99.066,VALID,0.01,VALID,17.996,VALID,44.0,VALID,0.498,
2018-07-06, 03:05:06,VALID,916.788,VALID,0.0,VALID,98.997,VALID,0.01,VALID,17.899,VALID,45.0,VALID,0.276,
2018-07-06, 03:06:06,VALID,916.796,VALID,0.0,VALID,98.997,VALID,0.027,VALID,17.855,INVALID,360.0,VALID,0.003,
2018-07-06, 03:07:06,VALID,916.79,VALID,0.0,VALID,99.045,VALID,0.04,VALID,17.862,INVALID,360.0,VALID,0.0,
2018-07-06, 03:08:06,VALID,916.786,VALID,0.0,VALID,99.051,VALID,0.036,VALID,17.883,INVALID,360.0,VALID,0.0,
2018-07-06, 03:09:06,VALID,916.782,VALID,0.0,VALID,99.105,VALID,0.03,VALID,17.938,INVALID,360.0,VALID,0.0,
2018-07-06, 03:10:06,VALID,916.784,VALID,0.0,VALID,99.119,VALID,0.048,VALID,17.965,INVALID,360.0,VALID,0.0,
2018-07-06, 03:11:06,VALID,916.785,VALID,0.0,VALID,99.078,VALID,0.041,VALID,17.942,INVALID,360.0,VALID,0.023,
2018-07-06, 03:12:06,VALID,916.791,VALID,0.0,VALID,99.065,VALID,0.03,VALID,17.91,VALID,47.0,VALID,0.201,
2018-07-06, 03:13:06,VALID,916.804,VALID,0.0,VALID,99.051,VALID,0.032,VALID,17.924,VALID,50.0,VALID,0.175,
2018-07-06, 03:14:06,VALID,916.809,VALID,0.0,VALID,99.037,VALID,0.032,VALID,17.898,INVALID,360.0,VALID,0.004,
2018-07-06, 03:15:06,VALID,916.831,VALID,0.0,VALID,99.022,VALID,0.025,VALID,17.86,VALID,55.0,VALID,0.071,
2018-07-06, 03:16:06,VALID,916.846,VALID,0.0,VALID,99.011,VALID,0.044,VALID,17.852,VALID,57.0,VALID,0.073,
2018-07-06, 03:17:06,VALID,916.848,VALID,0.0,VALID,99.006,VALID,0.028,VALID,17.858,VALID,51.0,VALID,0.145,
2018-07-06, 03:18:06,VALID,916.855,VALID,0.0,VALID,99.039,VALID,0.04,VALID,17.926,VALID,48.0,VALID,0.614,
2018-07-06, 03:19:06,VALID,916.85,VALID,0.0,VALID,99.1,VALID,0.017,VALID,18.034,VALID,49.0,VALID,0.484,
2018-07-06, 03:20:06,VALID,916.845,VALID,0.0,VALID,99.114,VALID,-0.01,VALID,18.119,VALID,45.0,VALID,0.62,
2018-07-06, 03:21:06,VALID,916.811,VALID,0.0,VALID,99.104,VALID,-0.007,VALID,18.151,VALID,46.0,VALID,0.646,
2018-07-06, 03:22:06,VALID,916.79,VALID,0.0,VALID,99.101,VALID,-0.018,VALID,18.162,VALID,50.0,VALID,0.221,
2018-07-06, 03:23:06,VALID,916.769,VALID,0.0,VALID,99.107,VALID,-0.017,VALID,18.153,VALID,47.0,VALID,0.423,
2018-07-06, 03:24:06,VALID,916.745,VALID,0.0,VALID,99.081,VALID,0.001,VALID,18.16,INVALID,360.0,VALID,0.108,
2018-07-06, 03:25:06,VALID,916.725,VALID,0.0,VALID,99.073,VALID,-0.013,VALID,18.164,VALID,48.0,VALID,0.165,
2018-07-06, 03:26:06,VALID,916.699,VALID,0.0,VALID,99.082,VALID,0.008,VALID,18.174,VALID,49.0,VALID,0.207,
2018-07-06, 03:27:06,VALID,916.686,VALID,0.0,VALID,99.096,VALID,-0.012,VALID,18.214,INVALID,360.0,VALID,0.193,
2018-07-06, 03:28:06,VALID,916.657,VALID,0.0,VALID,99.093,VALID,0.0,VALID,18.228,VALID,44.0,VALID,0.129,
2018-07-06, 03:29:06,VALID,916.64,VALID,0.0,VALID,99.077,VALID,-0.019,VALID,18.233,VALID,49.0,VALID,0.502,
2018-07-06, 03:30:06,VALID,916.634,VALID,0.0,VALID,99.095,VALID,-0.003,VALID,18.259,VALID,44.0,VALID,0.771,
2018-07-06, 03:31:06,VALID,916.628,VALID,0.0,VALID,99.061,VALID,-0.009,VALID,18.217,VALID,43.0,VALID,0.689,
2018-07-06, 03:32:06,VALID,916.608,VALID,0.0,VALID,99.061,VALID,-0.002,VALID,18.186,VALID,43.0,VALID,0.969,
2018-07-06, 03:33:06,VALID,916.599,VALID,0.0,VALID,99.08,VALID,-0.015,VALID,18.204,VALID,44.0,VALID,0.786,
2018-07-06, 03:34:06,VALID,916.589,VALID,0.0,VALID,99.079,VALID,-0.016,VALID,18.201,VALID,46.0,VALID,0.609,
2018-07-06, 03:35:06,VALID,916.583,VALID,0.0,VALID,99.094,VALID,-0.009,VALID,18.203,VALID,52.0,VALID,0.232,
2018-07-06, 03:36:06,VALID,916.596,VALID,0.0,VALID,99.084,VALID,-0.022,VALID,18.206,VALID,51.0,VALID,0.071,
2018-07-06, 03:37:06,VALID,916.598,VALID,0.0,VALID,99.096,VALID,-0.022,VALID,18.206,INVALID,360.0,VALID,0.003,
2018-07-06, 03:38:06,VALID,916.611,VALID,0.0,VALID,99.092,VALID,-0.015,VALID,18.213,INVALID,360.0,VALID,0.018,
2018-07-06, 03:39:06,VALID,916.623,VALID,0.0,VALID,99.089,VALID,-0.015,VALID,18.228,INVALID,360.0,VALID,0.086,